Погода в Ходарах

Россия / Чувашская Республика     55°35′07″N   46°36′54″E
темп.,
°C
ветер,
м/с
пор.,
м/с
влажн.,
%
обл.,
%
осадки,
мм/ч
давл.,
гПа
погр.,
м
4 декабря, сб
сб400:00+3ю51596100 0.0 1006740
03:00+4ю61792100 0.0 1003793
06:00+5ююз81882100 0.0 10001040
09:00+2з61197100 1.5 1002771
12:00+1зюз51082100 0.4 1004957
15:000зюз511765 0.4 1006774
18:00−2зюз5118168 0.0 1008813
21:00−2зюз41079100 0.1 1009912
5 декабря, вс
вс500:00−3зюз41085100 0.0 1010778
03:00−4з498172 0.1 1012741
06:00−4з3779100 0.0 1013896
09:00−4з378098 0.1 1015808
12:00−3зсз3669100 0.0 1017926
15:00−3зсз2571100 0.0 1018712
18:00−4зсз1374100 0.0 1019516
21:00−4с118688 0.1 1020280
6 декабря, пн
пн600:00−5св119176 0.0 102170
03:00−5св129377 0.1 102376
06:00−6всв129185 0.1 1023155
09:00−6в2389100 0.1 1025174
12:00−4вюв2282100 0.1 1026294
15:00−4вюв2487100 0.1 1027182
18:00−5вюв2591100 0.0 1028182
21:00−4вюв2688100 0.0 1028222
7 декабря, вт
вт700:00−4юв278867 0.0 1029283
03:00−4юв3886100 0.0 1029299
06:00−5вюв41087100 0.0 1028363
09:00−4юв41281100 0.0 1028508
12:00−2юв51371100 0.0 1027661
15:00−2юв61468100 0.0 1025767
18:00−3юв61693100 1.5 1023679
21:00−2ююв61695100 5.9 1021697
8 декабря, ср
ср800:00−1ююв51594100 3.3 1019691
03:00+1ю61694100 6.4 1017643
06:00+2ю61793100 0.4 1017664
09:00+3ю61892100 0.4 1017732
12:00+3ююз51694100 0.0 1018738
15:00+3ю41495100 0.0 1018561
18:00+3ю41294100 0.0 1019392
21:00+2ю41295100 0.0 1019376